When you browse on this site, cookies collect data to enhance your experience and personalize the content and advertising you see.
Visit our Privacy Policy to learn more. By continuing to use the site, you agree to this use of cookies and data.
  • In Romania
  • List of Countries
  • For 7 days
  • Water Temperature
  • Satellite Maps
  • Weather Map
  • Weather Widgets
  • user-avatar
    Login

    Hourly Weather Krasnyy Pahar

    Today, 25 April, Thursday

    Time Temperature Precipitation Wind Pressure Humidity
    00:00 +8°C° 0.1 mm 4 mps 738 mmHg 67%
    01:00 +8°C° 0.1 mm 4 mps 738 mmHg 67%
    02:00 +8°C° 0.1 mm 4 mps 738 mmHg 66%
    03:00 +9°C° 0 mm 3 mps 738 mmHg 65%
    04:00 +9°C° 0 mm 3 mps 738 mmHg 66%
    05:00 +9°C° 0 mm 3 mps 738 mmHg 67%
    06:00 +9°C° 0 mm 3 mps 738 mmHg 68%
    07:00 +11°C° 0 mm 3 mps 738 mmHg 62%
    08:00 +13°C° 0 mm 4 mps 738 mmHg 57%
    09:00 +17°C° 0 mm 4 mps 738 mmHg 51%
    10:00 +17°C° 0 mm 3 mps 738 mmHg 48%
    11:00 +18°C° 0 mm 3 mps 738 mmHg 44%
    12:00 +19°C° 0 mm 2 mps 738 mmHg 41%
    13:00 +19°C° 0 mm 2 mps 738 mmHg 41%
    14:00 +19°C° 0 mm 2 mps 737 mmHg 42%
    15:00 +20°C° 0 mm 2 mps 737 mmHg 42%
    16:00 +19°C° 0.1 mm 2 mps 737 mmHg 47%
    17:00 +18°C° 0.1 mm 2 mps 737 mmHg 51%
    18:00 +19°C° 0.1 mm 1 mps 737 mmHg 56%
    19:00 +16°C° 0 mm 1 mps 737 mmHg 59%
    20:00 +15°C° 0 mm 1 mps 737 mmHg 62%
    21:00 +13°C° 0 mm 1 mps 737 mmHg 65%
    22:00 +13°C° 0 mm 1 mps 737 mmHg 66%
    23:00 +12°C° 0 mm 1 mps 737 mmHg 68%

    Tomorrow, 26 April, Friday

    Time Temperature Precipitation Wind Pressure Humidity
    00:00 +12°C° 0 mm 1 mps 737 mmHg 69%
    01:00 +12°C° 0 mm 1 mps 737 mmHg 69%
    02:00 +11°C° 0 mm 1 mps 737 mmHg 69%
    03:00 +11°C° 0 mm 1 mps 736 mmHg 69%
    04:00 +11°C° 0 mm 1 mps 736 mmHg 69%
    05:00 +11°C° 0 mm 1 mps 736 mmHg 69%
    06:00 +11°C° 0 mm 1 mps 736 mmHg 69%
    07:00 +13°C° 0 mm 1 mps 736 mmHg 64%
    08:00 +15°C° 0 mm 1 mps 736 mmHg 58%
    09:00 +18°C° 0 mm 1 mps 736 mmHg 53%
    10:00 +18°C° 0 mm 2 mps 735 mmHg 50%
    11:00 +19°C° 0 mm 3 mps 735 mmHg 46%
    12:00 +20°C° 0 mm 3 mps 735 mmHg 43%
    13:00 +21°C° 0 mm 4 mps 735 mmHg 43%
    14:00 +21°C° 0 mm 4 mps 734 mmHg 42%
    15:00 +21°C° 0 mm 4 mps 734 mmHg 41%
    16:00 +21°C° 0 mm 4 mps 734 mmHg 46%
    17:00 +20°C° 0 mm 3 mps 734 mmHg 51%
    18:00 +19°C° 0 mm 3 mps 733 mmHg 56%
    19:00 +17°C° 0 mm 3 mps 734 mmHg 60%
    20:00 +16°C° 0 mm 2 mps 734 mmHg 63%
    21:00 +14°C° 0 mm 2 mps 734 mmHg 67%
    22:00 +14°C° 0 mm 2 mps 734 mmHg 68%
    23:00 +13°C° 0 mm 2 mps 734 mmHg 69%

    Day after tomorrow, 27 April, Saturday

    Time Temperature Precipitation Wind Pressure Humidity
    00:00 +12°C° 0 mm 1 mps 734 mmHg 70%
    01:00 +12°C° 0 mm 1 mps 734 mmHg 71%
    02:00 +12°C° 0 mm 1 mps 733 mmHg 71%
    03:00 +11°C° 0 mm 1 mps 733 mmHg 72%
    04:00 +12°C° 0 mm 1 mps 733 mmHg 71%
    05:00 +12°C° 0 mm 1 mps 733 mmHg 71%
    06:00 +12°C° 0 mm 1 mps 733 mmHg 70%
    07:00 +14°C° 0 mm 2 mps 733 mmHg 62%
    08:00 +16°C° 0 mm 2 mps 733 mmHg 54%
    09:00 +18°C° 0 mm 3 mps 733 mmHg 46%
    10:00 +19°C° 0 mm 3 mps 732 mmHg 44%
    11:00 +20°C° 0 mm 4 mps 732 mmHg 42%
    12:00 +21°C° 0 mm 4 mps 732 mmHg 40%
    13:00 +21°C° 0 mm 4 mps 732 mmHg 40%
    14:00 +22°C° 0 mm 4 mps 731 mmHg 40%
    15:00 +22°C° 0 mm 4 mps 731 mmHg 40%
    16:00 +21°C° 0 mm 3 mps 731 mmHg 45%
    17:00 +20°C° 0 mm 3 mps 731 mmHg 50%
    18:00 +20°C° 0 mm 2 mps 731 mmHg 55%
    19:00 +19°C° 0 mm 1 mps 731 mmHg 58%
    20:00 +18°C° 0 mm 1 mps 731 mmHg 61%
    21:00 +15°C° 0 mm 0 mps 731 mmHg 65%
    22:00 +14°C° 0 mm 0 mps 731 mmHg 66%
    23:00 +15°C° 0 mm 1 mps 731 mmHg 67%

    28 April, Sunday

    Time Temperature Precipitation Wind Pressure Humidity
    00:00 +14°C° 0 mm 1 mps 731 mmHg 69%
    01:00 +14°C° 0 mm 1 mps 730 mmHg 70%
    02:00 +13°C° 0 mm 1 mps 730 mmHg 71%
    03:00 +11°C° 0 mm 0 mps 730 mmHg 72%
    04:00 +12°C° 0 mm 1 mps 730 mmHg 73%
    05:00 +13°C° 0 mm 1 mps 730 mmHg 73%
    06:00 +13°C° 0 mm 1 mps 730 mmHg 74%
    07:00 +15°C° 0 mm 1 mps 730 mmHg 68%
    08:00 +18°C° 0 mm 1 mps 730 mmHg 62%
    09:00 +19°C° 0 mm 2 mps 730 mmHg 56%
    10:00 +21°C° 0 mm 1 mps 729 mmHg 52%
    11:00 +22°C° 0 mm 1 mps 729 mmHg 48%
    12:00 +23°C° 0 mm 1 mps 729 mmHg 44%
    13:00 +24°C° 0 mm 1 mps 729 mmHg 42%
    14:00 +24°C° 0 mm 2 mps 728 mmHg 40%
    15:00 +24°C° 0 mm 2 mps 728 mmHg 38%
    16:00 +24°C° 0 mm 1 mps 728 mmHg 43%
    17:00 +23°C° 0 mm 1 mps 728 mmHg 47%
    18:00 +22°C° 0 mm 1 mps 728 mmHg 52%
    19:00 +21°C° 0 mm 1 mps 728 mmHg 54%
    20:00 +19°C° 0 mm 1 mps 729 mmHg 57%
    21:00 +18°C° 0 mm 1 mps 729 mmHg 59%
    22:00 +16°C° 0 mm 1 mps 729 mmHg 61%
    23:00 +16°C° 0 mm 1 mps 729 mmHg 63%

    29 April, Monday

    Time Temperature Precipitation Wind Pressure Humidity
    00:00 +15°C° 0 mm 1 mps 729 mmHg 65%
    01:00 +14°C° 0 mm 1 mps 728 mmHg 65%
    02:00 +14°C° 0 mm 1 mps 728 mmHg 66%
    03:00 +14°C° 0 mm 2 mps 728 mmHg 67%
    04:00 +14°C° 0 mm 2 mps 728 mmHg 67%
    05:00 +14°C° 0 mm 2 mps 728 mmHg 67%
    06:00 +14°C° 0 mm 2 mps 728 mmHg 67%
    07:00 +16°C° 0 mm 1 mps 728 mmHg 61%
    08:00 +19°C° 0 mm 1 mps 728 mmHg 55%
    09:00 +22°C° 0 mm 1 mps 728 mmHg 48%
    10:00 +23°C° 0 mm 1 mps 728 mmHg 45%
    11:00 +24°C° 0 mm 1 mps 728 mmHg 41%
    12:00 +25°C° 0 mm 1 mps 728 mmHg 37%
    13:00 +25°C° 0 mm 1 mps 728 mmHg 36%
    14:00 +26°C° 0 mm 2 mps 728 mmHg 36%
    15:00 +26°C° 0 mm 2 mps 727 mmHg 35%
    16:00 +25°C° 0 mm 2 mps 727 mmHg 41%
    17:00 +24°C° 0 mm 2 mps 727 mmHg 47%
    18:00 +23°C° 0 mm 2 mps 727 mmHg 53%
    19:00 +22°C° 0.2 mm 1 mps 728 mmHg 57%
    20:00 +20°C° 0.2 mm 1 mps 728 mmHg 61%
    21:00 +17°C° 0.2 mm 0 mps 728 mmHg 65%
    22:00 +16°C° 0.7 mm 0 mps 728 mmHg 69%
    23:00 +15°C° 0.7 mm 0 mps 728 mmHg 73%

    30 April, Tuesday

    Time Temperature Precipitation Wind Pressure Humidity
    00:00 +15°C° 0.7 mm 0 mps 727 mmHg 76%
    01:00 +14°C° 0.8 mm 0 mps 727 mmHg 79%
    02:00 +14°C° 0.8 mm 0 mps 727 mmHg 82%
    03:00 +15°C° 0.8 mm 1 mps 727 mmHg 84%
    04:00 +14°C° 0.1 mm 0 mps 728 mmHg 83%
    05:00 +14°C° 0.1 mm 0 mps 728 mmHg 82%
    06:00 +14°C° 0.1 mm 0 mps 728 mmHg 81%
    07:00 +16°C° 0 mm 1 mps 728 mmHg 75%
    08:00 +19°C° 0 mm 1 mps 728 mmHg 70%
    09:00 +20°C° 0 mm 2 mps 728 mmHg 64%
    10:00 +21°C° 0.2 mm 2 mps 728 mmHg 61%
    11:00 +23°C° 0.2 mm 2 mps 728 mmHg 58%
    12:00 +24°C° 0.2 mm 3 mps 727 mmHg 56%
    13:00 +24°C° 0.4 mm 3 mps 727 mmHg 55%
    14:00 +24°C° 0.4 mm 3 mps 727 mmHg 55%
    15:00 +24°C° 0.4 mm 3 mps 727 mmHg 54%
    16:00 +23°C° 1.7 mm 2 mps 727 mmHg 61%
    17:00 +21°C° 1.7 mm 2 mps 727 mmHg 67%
    18:00 +20°C° 1.7 mm 2 mps 727 mmHg 74%
    19:00 +19°C° 0.5 mm 2 mps 727 mmHg 77%
    20:00 +19°C° 0.5 mm 1 mps 727 mmHg 81%
    21:00 +16°C° 0.5 mm 1 mps 727 mmHg 84%
    22:00 +16°C° 0 mm 1 mps 727 mmHg 86%
    23:00 +15°C° 0 mm 2 mps 726 mmHg 87%
    Show more